User: anonymous   Login
Location: St. Malo Provincial Park
(49.3214°N, 96.9305°W)
Time: 14:22:11
(UTC-05:00)
Language:

Iridium 6 - Orbit

View from above orbital plane
View from above orbital plane
View from above satellite
View from above satellite

Ground track
Ground track

The orbit data is extracted from the following two-line orbital elements,

1 24794U 97020C   16122.51979915 -.00000050  00000-0 -25007-4 0  9997
2 24794  86.3945 131.0082 0002219  86.8651 273.2799 14.34217544994192
Epoch (UTC): 01 May 2016 12:28:30
Eccentricity: 0.0002219
inclination: 86.3945°
perigee height: 776 km
apogee height: 779 km
right ascension of ascending node: 131.0082°
argument of perigee: 86.8651°
revolutions per day: 14.34217544
mean anomaly at epoch: 273.2799°
orbit number at epoch: 99419

The dashed part of the orbit path shows where the satellite is in the earth's shadow,  

DLR